contact:dominique.lefevre@mio.osupytheas.fr, maurice.libes@osupytheas.fr, didier.mallarino@osupytheas.fr
Project:EMSO http://www.emso-fr.org/EMSO-France
Depth: 2436.0 m
Title:EMSO Ligure Ouest : Data MII capteur CSTAR
DateTime,Latitude,Longitude,Instrument_Serial,Reference_Counts,Signal_Counts,Corrected_Signal_raw_counts,Calculated_Beam_c_inverse_meters,Internal_thermistor_counts
DateTime,Latitude,Longitude,Instrument_Serial,Reference_Counts,Signal_Counts,Corrected_Signal_raw_counts,Calculated_Beam_c_inverse_meters,Internal_thermistor_counts
2020-10-28T00:01:34,42.805,6.029,CST-1368DR,5851,8189,15080,0.140,551
2020-10-28T00:04:36,42.805,6.029,CST-1368DR,5851,8189,15079,0.140,551
2020-10-28T00:07:37,42.805,6.029,CST-1368DR,5851,8189,15079,0.140,551
2020-10-28T00:10:39,42.805,6.029,CST-1368DR,5851,8189,15079,0.140,551
2020-10-28T00:13:40,42.805,6.029,CST-1368DR,5851,8189,15079,0.140,551
2020-10-28T00:16:42,42.805,6.029,CST-1368DR,5851,8189,15079,0.140,551
2020-10-28T00:19:43,42.805,6.029,CST-1368DR,5851,8189,15080,0.140,551
2020-10-28T00:22:45,42.805,6.029,CST-1368DR,5851,8187,15076,0.141,551
2020-10-28T00:25:47,42.805,6.029,CST-1368DR,5851,8190,15080,0.140,551
2020-10-28T00:28:48,42.805,6.029,CST-1368DR,5851,8190,15080,0.140,551
2020-10-28T00:31:50,42.805,6.029,CST-1368DR,5851,8189,15079,0.140,551
2020-10-28T00:34:51,42.805,6.029,CST-1368DR,5851,8189,15079,0.140,551
2020-10-28T00:37:53,42.805,6.029,CST-1368DR,5851,8189,15079,0.140,551
2020-10-28T00:40:55,42.805,6.029,CST-1368DR,5851,8189,15079,0.140,551
2020-10-28T00:43:56,42.805,6.029,CST-1368DR,5851,8188,15078,0.140,551
2020-10-28T00:46:58,42.805,6.029,CST-1368DR,5851,8189,15079,0.140,551
2020-10-28T00:49:59,42.805,6.029,CST-1368DR,5851,8189,15079,0.140,551
2020-10-28T00:53:01,42.805,6.029,CST-1368DR,5851,8189,15078,0.140,551
2020-10-28T00:56:02,42.805,6.029,CST-1368DR,5851,8189,15079,0.140,551
2020-10-28T00:59:04,42.805,6.029,CST-1368DR,5851,8189,15079,0.140,551
2020-10-28T01:02:06,42.805,6.029,CST-1368DR,5851,8189,15079,0.140,551
2020-10-28T01:05:07,42.805,6.029,CST-1368DR,5851,8189,15078,0.140,551
2020-10-28T01:08:09,42.805,6.029,CST-1368DR,5851,8189,15080,0.140,551
2020-10-28T01:11:10,42.805,6.029,CST-1368DR,5851,8189,15079,0.140,551
2020-10-28T01:14:12,42.805,6.029,CST-1368DR,5851,8189,15079,0.140,551
2020-10-28T01:17:14,42.805,6.029,CST-1368DR,5851,8189,15079,0.140,551
2020-10-28T01:20:15,42.805,6.029,CST-1368DR,5851,8189,15079,0.140,551
2020-10-28T01:23:17,42.805,6.029,CST-1368DR,5851,8189,15079,0.140,551
2020-10-28T01:26:18,42.805,6.029,CST-1368DR,5851,8188,15077,0.141,551
2020-10-28T01:29:20,42.805,6.029,CST-1368DR,5851,8189,15078,0.140,551
2020-10-28T01:32:21,42.805,6.029,CST-1368DR,5851,8189,15078,0.140,551
2020-10-28T01:35:23,42.805,6.029,CST-1368DR,5851,8189,15079,0.140,551
2020-10-28T01:38:25,42.805,6.029,CST-1368DR,5851,8189,15079,0.140,551
2020-10-28T01:41:26,42.805,6.029,CST-1368DR,5851,8189,15079,0.140,551
2020-10-28T01:44:28,42.805,6.029,CST-1368DR,5851,8188,15077,0.141,551
2020-10-28T01:47:29,42.805,6.029,CST-1368DR,5851,8189,15078,0.140,551
2020-10-28T01:50:31,42.805,6.029,CST-1368DR,5851,8189,15079,0.140,551
2020-10-28T01:53:32,42.805,6.029,CST-1368DR,5851,8189,15079,0.140,551
2020-10-28T01:56:34,42.805,6.029,CST-1368DR,5851,8189,15078,0.140,551
2020-10-28T01:59:36,42.805,6.029,CST-1368DR,5851,8189,15078,0.140,551
2020-10-28T02:02:37,42.805,6.029,CST-1368DR,5851,8189,15078,0.140,551
2020-10-28T02:05:39,42.805,6.029,CST-1368DR,5851,8189,15078,0.140,551
2020-10-28T02:08:40,42.805,6.029,CST-1368DR,5851,8189,15078,0.140,551
2020-10-28T02:11:42,42.805,6.029,CST-1368DR,5851,8189,15079,0.140,551
2020-10-28T02:14:44,42.805,6.029,CST-1368DR,5851,8189,15079,0.140,551
2020-10-28T02:17:45,42.805,6.029,CST-1368DR,5851,8189,15079,0.140,551
2020-10-28T02:20:47,42.805,6.029,CST-1368DR,5851,8189,15078,0.140,551
2020-10-28T02:23:48,42.805,6.029,CST-1368DR,5850,8189,15081,0.139,551
2020-10-28T02:26:50,42.805,6.029,CST-1368DR,5851,8189,15079,0.140,551
2020-10-28T02:29:51,42.805,6.029,CST-1368DR,5851,8189,15079,0.140,551
2020-10-28T02:32:53,42.805,6.029,CST-1368DR,5850,8189,15081,0.139,551
2020-10-28T02:35:55,42.805,6.029,CST-1368DR,5850,8189,15081,0.139,551
2020-10-28T02:38:56,42.805,6.029,CST-1368DR,5851,8189,15079,0.140,550
2020-10-28T02:41:58,42.805,6.029,CST-1368DR,5850,8188,15080,0.140,551
2020-10-28T02:44:59,42.805,6.029,CST-1368DR,5850,8188,15079,0.140,551
2020-10-28T02:48:01,42.805,6.029,CST-1368DR,5850,8189,15081,0.139,551
2020-10-28T02:51:02,42.805,6.029,CST-1368DR,5850,8189,15081,0.139,550
2020-10-28T02:54:04,42.805,6.029,CST-1368DR,5850,8189,15081,0.139,551
2020-10-28T02:57:06,42.805,6.029,CST-1368DR,5850,8188,15080,0.140,551
2020-10-28T03:00:07,42.805,6.029,CST-1368DR,5850,8189,15081,0.139,550
2020-10-28T03:03:09,42.805,6.029,CST-1368DR,5850,8189,15081,0.139,551
2020-10-28T03:06:10,42.805,6.029,CST-1368DR,5850,8189,15081,0.139,551
2020-10-28T03:09:12,42.805,6.029,CST-1368DR,5851,8188,15077,0.141,551
2020-10-28T03:12:14,42.805,6.029,CST-1368DR,5851,8188,15078,0.140,551
2020-10-28T03:15:15,42.805,6.029,CST-1368DR,5850,8188,15080,0.140,551
2020-10-28T03:18:17,42.805,6.029,CST-1368DR,5850,8189,15081,0.139,551
2020-10-28T03:21:18,42.805,6.029,CST-1368DR,5850,8188,15080,0.140,551
2020-10-28T03:24:20,42.805,6.029,CST-1368DR,5850,8189,15081,0.139,551
2020-10-28T03:27:21,42.805,6.029,CST-1368DR,5850,8188,15080,0.140,551
2020-10-28T03:30:23,42.805,6.029,CST-1368DR,5850,8188,15080,0.140,551
2020-10-28T03:33:25,42.805,6.029,CST-1368DR,5850,8188,15080,0.140,551
2020-10-28T03:36:26,42.805,6.029,CST-1368DR,5850,8189,15081,0.139,551
2020-10-28T03:39:28,42.805,6.029,CST-1368DR,5850,8188,15079,0.140,551
2020-10-28T03:42:29,42.805,6.029,CST-1368DR,5850,8188,15080,0.140,551
2020-10-28T03:45:31,42.805,6.029,CST-1368DR,5850,8189,15081,0.139,551
2020-10-28T03:48:33,42.805,6.029,CST-1368DR,5850,8189,15081,0.139,551
2020-10-28T03:51:34,42.805,6.029,CST-1368DR,5850,8189,15081,0.139,551
2020-10-28T03:54:36,42.805,6.029,CST-1368DR,5850,8188,15080,0.140,550
2020-10-28T03:57:37,42.805,6.029,CST-1368DR,5850,8188,15080,0.140,551
2020-10-28T04:00:39,42.805,6.029,CST-1368DR,5850,8188,15079,0.140,550
2020-10-28T04:03:40,42.805,6.029,CST-1368DR,5850,8189,15081,0.139,551
2020-10-28T04:06:42,42.805,6.029,CST-1368DR,5850,8188,15080,0.140,551
2020-10-28T04:09:44,42.805,6.029,CST-1368DR,5850,8189,15081,0.139,551
2020-10-28T04:12:45,42.805,6.029,CST-1368DR,5850,8186,15076,0.141,551
2020-10-28T04:15:47,42.805,6.029,CST-1368DR,5850,8188,15080,0.140,551
2020-10-28T04:18:48,42.805,6.029,CST-1368DR,5850,8188,15080,0.140,551
2020-10-28T04:21:50,42.805,6.029,CST-1368DR,5850,8188,15080,0.140,551
2020-10-28T04:24:51,42.805,6.029,CST-1368DR,5850,8188,15079,0.140,551
2020-10-28T04:27:53,42.805,6.029,CST-1368DR,5850,8188,15080,0.140,551
2020-10-28T04:30:55,42.805,6.029,CST-1368DR,5850,8189,15081,0.139,551
2020-10-28T04:33:56,42.805,6.029,CST-1368DR,5850,8189,15081,0.139,551
2020-10-28T04:36:58,42.805,6.029,CST-1368DR,5850,8188,15080,0.140,551
2020-10-28T04:39:59,42.805,6.029,CST-1368DR,5850,8188,15080,0.140,551
2020-10-28T04:43:01,42.805,6.029,CST-1368DR,5850,8188,15080,0.140,550
2020-10-28T04:46:03,42.805,6.029,CST-1368DR,5850,8188,15080,0.140,551
2020-10-28T04:49:04,42.805,6.029,CST-1368DR,5850,8189,15081,0.139,551
2020-10-28T04:52:06,42.805,6.029,CST-1368DR,5850,8188,15080,0.140,551
2020-10-28T04:55:07,42.805,6.029,CST-1368DR,5850,8188,15080,0.140,551
2020-10-28T04:58:09,42.805,6.029,CST-1368DR,5850,8188,15080,0.140,551
2020-10-28T05:01:10,42.805,6.029,CST-1368DR,5850,8187,15078,0.140,551
2020-10-28T05:04:12,42.805,6.029,CST-1368DR,5850,8188,15080,0.140,551
2020-10-28T05:07:14,42.805,6.029,CST-1368DR,5850,8188,15080,0.140,551
2020-10-28T05:10:15,42.805,6.029,CST-1368DR,5850,8188,15080,0.140,551
2020-10-28T05:13:17,42.805,6.029,CST-1368DR,5850,8189,15081,0.139,551
2020-10-28T05:16:18,42.805,6.029,CST-1368DR,5850,8188,15080,0.140,551
2020-10-28T05:19:20,42.805,6.029,CST-1368DR,5850,8188,15080,0.140,551
2020-10-28T05:22:22,42.805,6.029,CST-1368DR,5850,8188,15080,0.140,551
2020-10-28T05:25:23,42.805,6.029,CST-1368DR,5850,8188,15080,0.140,551
2020-10-28T05:28:25,42.805,6.029,CST-1368DR,5850,8188,15080,0.140,551
2020-10-28T05:31:26,42.805,6.029,CST-1368DR,5850,8188,15080,0.140,551
2020-10-28T05:34:28,42.805,6.029,CST-1368DR,5850,8188,15080,0.140,551
2020-10-28T05:37:29,42.805,6.029,CST-1368DR,5850,8188,15079,0.140,551
2020-10-28T05:40:31,42.805,6.029,CST-1368DR,5850,8188,15080,0.140,551
2020-10-28T05:43:33,42.805,6.029,CST-1368DR,5850,8188,15079,0.140,551
2020-10-28T05:46:34,42.805,6.029,CST-1368DR,5850,8188,15079,0.140,551
2020-10-28T05:49:36,42.805,6.029,CST-1368DR,5850,8187,15077,0.141,551
2020-10-28T05:52:37,42.805,6.029,CST-1368DR,5850,8186,15076,0.141,551
2020-10-28T05:55:39,42.805,6.029,CST-1368DR,5850,8188,15079,0.140,551
2020-10-28T05:58:40,42.805,6.029,CST-1368DR,5850,8187,15077,0.141,551
2020-10-28T06:01:42,42.805,6.029,CST-1368DR,5850,8188,15079,0.140,551
2020-10-28T06:04:44,42.805,6.029,CST-1368DR,5850,8188,15080,0.140,551
2020-10-28T06:07:45,42.805,6.029,CST-1368DR,5850,8188,15080,0.140,551
2020-10-28T06:10:47,42.805,6.029,CST-1368DR,5850,8188,15079,0.140,551
2020-10-28T06:13:48,42.805,6.029,CST-1368DR,5850,8188,15079,0.140,551
2020-10-28T06:16:50,42.805,6.029,CST-1368DR,5850,8187,15079,0.140,551
2020-10-28T06:19:52,42.805,6.029,CST-1368DR,5850,8188,15079,0.140,551
2020-10-28T06:22:53,42.805,6.029,CST-1368DR,5850,8188,15080,0.140,551
2020-10-28T06:25:55,42.805,6.029,CST-1368DR,5850,8188,15079,0.140,551
2020-10-28T06:28:56,42.805,6.029,CST-1368DR,5850,8187,15079,0.140,551
2020-10-28T06:31:58,42.805,6.029,CST-1368DR,5850,8188,15080,0.140,551
2020-10-28T06:34:59,42.805,6.029,CST-1368DR,5850,8188,15079,0.140,551
2020-10-28T06:38:01,42.805,6.029,CST-1368DR,5850,8187,15078,0.140,551
2020-10-28T06:41:03,42.805,6.029,CST-1368DR,5850,8188,15079,0.140,551
2020-10-28T06:44:04,42.805,6.029,CST-1368DR,5850,8187,15077,0.141,551
2020-10-28T06:47:06,42.805,6.029,CST-1368DR,5850,8187,15079,0.140,551
2020-10-28T06:50:07,42.805,6.029,CST-1368DR,5850,8187,15078,0.140,551
2020-10-28T06:53:09,42.805,6.029,CST-1368DR,5850,8186,15076,0.141,551
2020-10-28T06:56:11,42.805,6.029,CST-1368DR,5850,8188,15079,0.140,551
2020-10-28T06:59:12,42.805,6.029,CST-1368DR,5850,8188,15080,0.140,551
2020-10-28T07:02:14,42.805,6.029,CST-1368DR,5850,8187,15079,0.140,551
2020-10-28T07:05:15,42.805,6.029,CST-1368DR,5850,8187,15078,0.140,551
2020-10-28T07:08:17,42.805,6.029,CST-1368DR,5850,8186,15077,0.141,551
2020-10-28T07:11:18,42.805,6.029,CST-1368DR,5850,8188,15079,0.140,551
2020-10-28T07:14:20,42.805,6.029,CST-1368DR,5850,8188,15079,0.140,551
2020-10-28T07:17:22,42.805,6.029,CST-1368DR,5850,8187,15077,0.141,551
2020-10-28T07:20:23,42.805,6.029,CST-1368DR,5850,8185,15075,0.141,551
2020-10-28T07:23:25,42.805,6.029,CST-1368DR,5850,8188,15079,0.140,551
2020-10-28T07:26:26,42.805,6.029,CST-1368DR,5850,8188,15079,0.140,551
2020-10-28T07:29:28,42.805,6.029,CST-1368DR,5850,8188,15079,0.140,551
2020-10-28T07:32:29,42.805,6.029,CST-1368DR,5850,8188,15079,0.140,551
2020-10-28T07:35:31,42.805,6.029,CST-1368DR,5850,8188,15079,0.140,551
2020-10-28T07:38:33,42.805,6.029,CST-1368DR,5850,8187,15077,0.141,551
2020-10-28T07:41:34,42.805,6.029,CST-1368DR,5850,8187,15079,0.140,551
2020-10-28T07:44:36,42.805,6.029,CST-1368DR,5850,8187,15077,0.141,551
2020-10-28T07:47:37,42.805,6.029,CST-1368DR,5850,8187,15078,0.140,551
2020-10-28T07:50:39,42.805,6.029,CST-1368DR,5850,8186,15076,0.141,551
2020-10-28T07:53:41,42.805,6.029,CST-1368DR,5850,8187,15078,0.140,551
2020-10-28T07:56:42,42.805,6.029,CST-1368DR,5850,8186,15077,0.141,551
2020-10-28T07:59:44,42.805,6.029,CST-1368DR,5850,8186,15077,0.141,551
2020-10-28T08:02:45,42.805,6.029,CST-1368DR,5850,8188,15079,0.140,551
2020-10-28T08:05:47,42.805,6.029,CST-1368DR,5850,8186,15077,0.141,551
2020-10-28T08:08:48,42.805,6.029,CST-1368DR,5850,8188,15079,0.140,551
2020-10-28T08:11:50,42.805,6.029,CST-1368DR,5850,8187,15078,0.140,551
2020-10-28T08:14:52,42.805,6.029,CST-1368DR,5850,8187,15078,0.140,551
2020-10-28T08:17:53,42.805,6.029,CST-1368DR,5850,8188,15079,0.140,551
2020-10-28T08:20:55,42.805,6.029,CST-1368DR,5850,8188,15079,0.140,551
2020-10-28T08:23:56,42.805,6.029,CST-1368DR,5850,8187,15079,0.140,551
2020-10-28T08:26:58,42.805,6.029,CST-1368DR,5850,8187,15079,0.140,551
2020-10-28T08:30:00,42.805,6.029,CST-1368DR,5850,8186,15077,0.141,551
2020-10-28T08:33:01,42.805,6.029,CST-1368DR,5849,8187,15080,0.140,551
2020-10-28T08:36:03,42.805,6.029,CST-1368DR,5850,8187,15078,0.140,551
2020-10-28T08:39:04,42.805,6.029,CST-1368DR,5850,8186,15077,0.141,551
2020-10-28T08:42:06,42.805,6.029,CST-1368DR,5850,8186,15076,0.141,551
2020-10-28T08:45:07,42.805,6.029,CST-1368DR,5850,8186,15077,0.141,551
2020-10-28T08:48:09,42.805,6.029,CST-1368DR,5849,8187,15080,0.140,551
2020-10-28T08:51:11,42.805,6.029,CST-1368DR,5849,8187,15081,0.139,551
2020-10-28T08:54:12,42.805,6.029,CST-1368DR,5849,8186,15079,0.140,551
2020-10-28T08:57:14,42.805,6.029,CST-1368DR,5849,8186,15078,0.140,550
2020-10-28T09:00:15,42.805,6.029,CST-1368DR,5849,8186,15078,0.140,551
2020-10-28T09:03:17,42.805,6.029,CST-1368DR,5849,8186,15079,0.140,551
2020-10-28T09:06:18,42.805,6.029,CST-1368DR,5849,8186,15079,0.140,551
2020-10-28T09:09:20,42.805,6.029,CST-1368DR,5849,8187,15080,0.140,551
2020-10-28T09:12:22,42.805,6.029,CST-1368DR,5849,8186,15079,0.140,551
2020-10-28T09:15:23,42.805,6.029,CST-1368DR,5849,8187,15080,0.140,551
2020-10-28T09:18:25,42.805,6.029,CST-1368DR,5849,8187,15081,0.139,551
2020-10-28T09:21:26,42.805,6.029,CST-1368DR,5849,8185,15077,0.141,551
2020-10-28T09:24:28,42.805,6.029,CST-1368DR,5849,8186,15079,0.140,551
2020-10-28T09:27:30,42.805,6.029,CST-1368DR,5849,8186,15078,0.140,551
2020-10-28T09:30:31,42.805,6.029,CST-1368DR,5849,8186,15079,0.140,551
2020-10-28T09:33:33,42.805,6.029,CST-1368DR,5849,8187,15080,0.140,551
2020-10-28T09:36:34,42.805,6.029,CST-1368DR,5849,8187,15080,0.140,551
2020-10-28T09:39:36,42.805,6.029,CST-1368DR,5849,8187,15080,0.140,551
2020-10-28T09:42:37,42.805,6.029,CST-1368DR,5849,8187,15080,0.140,551
2020-10-28T09:45:39,42.805,6.029,CST-1368DR,5849,8187,15080,0.140,551
2020-10-28T09:48:41,42.805,6.029,CST-1368DR,5849,8186,15078,0.140,551
2020-10-28T09:51:42,42.805,6.029,CST-1368DR,5849,8186,15079,0.140,551
2020-10-28T09:54:44,42.805,6.029,CST-1368DR,5849,8187,15080,0.140,551
2020-10-28T09:57:45,42.805,6.029,CST-1368DR,5849,8186,15079,0.140,551
2020-10-28T10:00:47,42.805,6.029,CST-1368DR,5849,8186,15079,0.140,551
2020-10-28T10:03:49,42.805,6.029,CST-1368DR,5849,8186,15079,0.140,551
2020-10-28T10:06:50,42.805,6.029,CST-1368DR,5849,8186,15078,0.140,551
2020-10-28T10:09:52,42.805,6.029,CST-1368DR,5849,8186,15078,0.140,551
2020-10-28T10:12:53,42.805,6.029,CST-1368DR,5849,8186,15079,0.140,551
2020-10-28T10:15:55,42.805,6.029,CST-1368DR,5849,8187,15080,0.140,551
2020-10-28T10:18:56,42.805,6.029,CST-1368DR,5849,8186,15079,0.140,551
2020-10-28T10:21:58,42.805,6.029,CST-1368DR,5849,8185,15076,0.141,551
2020-10-28T10:25:00,42.805,6.029,CST-1368DR,5849,8186,15078,0.140,551
2020-10-28T10:28:01,42.805,6.029,CST-1368DR,5849,8186,15079,0.140,551
2020-10-28T10:31:03,42.805,6.029,CST-1368DR,5849,8186,15078,0.140,551
2020-10-28T10:34:04,42.805,6.029,CST-1368DR,5849,8185,15076,0.141,551
2020-10-28T10:37:06,42.805,6.029,CST-1368DR,5849,8186,15079,0.140,551
2020-10-28T10:40:07,42.805,6.029,CST-1368DR,5849,8185,15077,0.141,551
2020-10-28T10:43:09,42.805,6.029,CST-1368DR,5849,8186,15078,0.140,551
2020-10-28T10:46:11,42.805,6.029,CST-1368DR,5849,8187,15080,0.140,551
2020-10-28T10:49:12,42.805,6.029,CST-1368DR,5849,8186,15078,0.140,551
2020-10-28T10:52:14,42.805,6.029,CST-1368DR,5849,8186,15079,0.140,551
2020-10-28T10:55:15,42.805,6.029,CST-1368DR,5849,8186,15079,0.140,551
2020-10-28T10:58:17,42.805,6.029,CST-1368DR,5849,8186,15079,0.140,551
2020-10-28T11:01:19,42.805,6.029,CST-1368DR,5849,8187,15080,0.140,551
2020-10-28T11:04:20,42.805,6.029,CST-1368DR,5849,8186,15079,0.140,551
2020-10-28T11:07:22,42.805,6.029,CST-1368DR,5849,8186,15079,0.140,551
2020-10-28T11:10:23,42.805,6.029,CST-1368DR,5849,8186,15079,0.140,551
2020-10-28T11:13:25,42.805,6.029,CST-1368DR,5849,8183,15074,0.141,551
2020-10-28T11:16:26,42.805,6.029,CST-1368DR,5849,8186,15079,0.140,551
2020-10-28T11:19:28,42.805,6.029,CST-1368DR,5849,8185,15076,0.141,551
2020-10-28T11:22:30,42.805,6.029,CST-1368DR,5849,8185,15077,0.141,551
2020-10-28T11:25:31,42.805,6.029,CST-1368DR,5849,8186,15078,0.140,551
2020-10-28T11:28:33,42.805,6.029,CST-1368DR,5849,8186,15078,0.140,551
2020-10-28T11:31:34,42.805,6.029,CST-1368DR,5849,8186,15079,0.140,551
2020-10-28T11:34:36,42.805,6.029,CST-1368DR,5849,8186,15078,0.140,551
2020-10-28T11:37:37,42.805,6.029,CST-1368DR,5849,8186,15078,0.140,551
2020-10-28T11:40:39,42.805,6.029,CST-1368DR,5849,8186,15079,0.140,551
2020-10-28T11:43:41,42.805,6.029,CST-1368DR,5849,8185,15077,0.141,551
2020-10-28T11:46:42,42.805,6.029,CST-1368DR,5849,8186,15079,0.140,551
2020-10-28T11:49:44,42.805,6.029,CST-1368DR,5849,8186,15079,0.140,551
2020-10-28T11:52:45,42.805,6.029,CST-1368DR,5849,8186,15078,0.140,551
2020-10-28T11:55:47,42.805,6.029,CST-1368DR,5849,8185,15077,0.141,551
2020-10-28T11:58:48,42.805,6.029,CST-1368DR,5849,8186,15079,0.140,551
2020-10-28T12:01:50,42.805,6.029,CST-1368DR,5849,8186,15078,0.140,551
2020-10-28T12:04:52,42.805,6.029,CST-1368DR,5849,8185,15077,0.141,551
2020-10-28T12:07:53,42.805,6.029,CST-1368DR,5849,8185,15076,0.141,551
2020-10-28T12:10:55,42.805,6.029,CST-1368DR,5849,8186,15078,0.140,551
2020-10-28T12:13:56,42.805,6.029,CST-1368DR,5849,8185,15077,0.141,551
2020-10-28T12:16:58,42.805,6.029,CST-1368DR,5849,8185,15077,0.141,551
2020-10-28T12:20:00,42.805,6.029,CST-1368DR,5849,8185,15077,0.141,551
2020-10-28T12:23:01,42.805,6.029,CST-1368DR,5849,8184,15075,0.141,551
2020-10-28T12:26:03,42.805,6.029,CST-1368DR,5849,8185,15077,0.141,551
2020-10-28T12:29:04,42.805,6.029,CST-1368DR,5849,8186,15079,0.140,551
2020-10-28T12:32:06,42.805,6.029,CST-1368DR,5849,8186,15078,0.140,551
2020-10-28T12:35:07,42.805,6.029,CST-1368DR,5849,8184,15075,0.141,551
2020-10-28T12:38:09,42.805,6.029,CST-1368DR,5849,8186,15079,0.140,551
2020-10-28T12:41:11,42.805,6.029,CST-1368DR,5849,8186,15079,0.140,551
2020-10-28T12:44:12,42.805,6.029,CST-1368DR,5849,8185,15077,0.141,551
2020-10-28T12:47:14,42.805,6.029,CST-1368DR,5849,8186,15078,0.140,551
2020-10-28T12:50:15,42.805,6.029,CST-1368DR,5849,8184,15075,0.141,551
2020-10-28T12:53:17,42.805,6.029,CST-1368DR,5849,8185,15077,0.141,551
2020-10-28T12:56:19,42.805,6.029,CST-1368DR,5849,8186,15078,0.140,551
2020-10-28T12:59:20,42.805,6.029,CST-1368DR,5849,8186,15079,0.140,551
2020-10-28T13:02:22,42.805,6.029,CST-1368DR,5849,8186,15078,0.140,551
2020-10-28T13:05:23,42.805,6.029,CST-1368DR,5849,8186,15079,0.140,551
2020-10-28T13:08:25,42.805,6.029,CST-1368DR,5849,8185,15077,0.141,551
2020-10-28T13:11:26,42.805,6.029,CST-1368DR,5849,8185,15076,0.141,551
2020-10-28T13:14:28,42.805,6.029,CST-1368DR,5849,8186,15078,0.140,551
2020-10-28T13:17:30,42.805,6.029,CST-1368DR,5849,8185,15077,0.141,551
2020-10-28T13:20:31,42.805,6.029,CST-1368DR,5849,8185,15076,0.141,551
2020-10-28T13:23:33,42.805,6.029,CST-1368DR,5849,8186,15078,0.140,551
2020-10-28T13:26:34,42.805,6.029,CST-1368DR,5849,8186,15078,0.140,551
2020-10-28T13:29:36,42.805,6.029,CST-1368DR,5849,8186,15078,0.140,551
2020-10-28T13:32:37,42.805,6.029,CST-1368DR,5849,8183,15072,0.142,551
2020-10-28T13:35:39,42.805,6.029,CST-1368DR,5849,8185,15076,0.141,551
2020-10-28T13:38:41,42.805,6.029,CST-1368DR,5849,8182,15072,0.142,551
2020-10-28T13:41:42,42.805,6.029,CST-1368DR,5849,8186,15078,0.140,551
2020-10-28T13:44:44,42.805,6.029,CST-1368DR,5849,8186,15078,0.140,551
2020-10-28T13:47:45,42.805,6.029,CST-1368DR,5849,8186,15078,0.140,551
2020-10-28T13:50:47,42.805,6.029,CST-1368DR,5849,8186,15078,0.140,551
2020-10-28T13:53:49,42.805,6.029,CST-1368DR,5849,8183,15072,0.142,551
2020-10-28T13:56:50,42.805,6.029,CST-1368DR,5849,8183,15073,0.142,551
2020-10-28T13:59:52,42.805,6.029,CST-1368DR,5849,8185,15077,0.141,551
2020-10-28T14:02:53,42.805,6.029,CST-1368DR,5849,8185,15076,0.141,551
2020-10-28T14:05:55,42.805,6.029,CST-1368DR,5849,8185,15076,0.141,551
2020-10-28T14:08:56,42.805,6.029,CST-1368DR,5849,8185,15077,0.141,551
2020-10-28T14:11:58,42.805,6.029,CST-1368DR,5849,8180,15067,0.143,551
2020-10-28T14:15:00,42.805,6.029,CST-1368DR,5849,8185,15077,0.141,551
2020-10-28T14:18:01,42.805,6.029,CST-1368DR,5849,8186,15078,0.140,551
2020-10-28T14:21:03,42.805,6.029,CST-1368DR,5849,8185,15076,0.141,551
2020-10-28T14:24:04,42.805,6.029,CST-1368DR,5849,8186,15078,0.140,551
2020-10-28T14:27:06,42.805,6.029,CST-1368DR,5849,8185,15076,0.141,551
2020-10-28T14:30:08,42.805,6.029,CST-1368DR,5849,8184,15075,0.141,551
2020-10-28T14:33:09,42.805,6.029,CST-1368DR,5849,8183,15074,0.141,551
2020-10-28T14:36:11,42.805,6.029,CST-1368DR,5849,8184,15074,0.141,551
2020-10-28T14:39:12,42.805,6.029,CST-1368DR,5849,8184,15075,0.141,551
2020-10-28T14:42:14,42.805,6.029,CST-1368DR,5849,8185,15077,0.141,551
2020-10-28T14:45:15,42.805,6.029,CST-1368DR,5849,8186,15078,0.140,551
2020-10-28T14:48:17,42.805,6.029,CST-1368DR,5849,8184,15075,0.141,551
2020-10-28T14:51:19,42.805,6.029,CST-1368DR,5849,8186,15078,0.140,551
2020-10-28T14:54:20,42.805,6.029,CST-1368DR,5849,8185,15076,0.141,551
2020-10-28T14:57:22,42.805,6.029,CST-1368DR,5849,8185,15076,0.141,551
2020-10-28T15:00:23,42.805,6.029,CST-1368DR,5849,8185,15077,0.141,551
2020-10-28T15:03:25,42.805,6.029,CST-1368DR,5849,8185,15077,0.141,551
2020-10-28T15:06:26,42.805,6.029,CST-1368DR,5849,8184,15075,0.141,551
2020-10-28T15:09:28,42.805,6.029,CST-1368DR,5849,8183,15072,0.142,551
2020-10-28T15:12:30,42.805,6.029,CST-1368DR,5849,8185,15076,0.141,551
2020-10-28T15:15:31,42.805,6.029,CST-1368DR,5849,8185,15077,0.141,551
2020-10-28T15:18:33,42.805,6.029,CST-1368DR,5849,8185,15077,0.141,551
2020-10-28T15:21:34,42.805,6.029,CST-1368DR,5849,8184,15075,0.141,551
2020-10-28T15:24:36,42.805,6.029,CST-1368DR,5849,8185,15076,0.141,551
2020-10-28T15:27:38,42.805,6.029,CST-1368DR,5849,8185,15076,0.141,551
2020-10-28T15:30:39,42.805,6.029,CST-1368DR,5849,8185,15076,0.141,551
2020-10-28T15:33:41,42.805,6.029,CST-1368DR,5849,8183,15074,0.141,551
2020-10-28T15:36:42,42.805,6.029,CST-1368DR,5849,8185,15076,0.141,550
2020-10-28T15:39:44,42.805,6.029,CST-1368DR,5849,8185,15076,0.141,551
2020-10-28T15:42:45,42.805,6.029,CST-1368DR,5849,8185,15077,0.141,551
2020-10-28T15:45:47,42.805,6.029,CST-1368DR,5849,8185,15076,0.141,551
2020-10-28T15:48:49,42.805,6.029,CST-1368DR,5849,8181,15069,0.143,551
2020-10-28T15:51:50,42.805,6.029,CST-1368DR,5849,8183,15072,0.142,550
2020-10-28T15:54:52,42.805,6.029,CST-1368DR,5849,8185,15076,0.141,551
2020-10-28T15:57:53,42.805,6.029,CST-1368DR,5849,8185,15076,0.141,551
2020-10-28T16:00:55,42.805,6.029,CST-1368DR,5849,8183,15074,0.141,551
2020-10-28T16:03:56,42.805,6.029,CST-1368DR,5849,8185,15076,0.141,551
2020-10-28T16:06:58,42.805,6.029,CST-1368DR,5848,8184,15077,0.141,551
2020-10-28T16:10:00,42.805,6.029,CST-1368DR,5848,8183,15076,0.141,551
2020-10-28T16:13:01,42.805,6.029,CST-1368DR,5848,8176,15062,0.144,551
2020-10-28T16:16:03,42.805,6.029,CST-1368DR,5848,8183,15075,0.141,551
2020-10-28T16:19:04,42.805,6.029,CST-1368DR,5848,8184,15077,0.141,551
2020-10-28T16:22:06,42.805,6.029,CST-1368DR,5848,8183,15076,0.141,551
2020-10-28T16:25:08,42.805,6.029,CST-1368DR,5848,8185,15078,0.140,551
2020-10-28T16:28:09,42.805,6.029,CST-1368DR,5848,8185,15079,0.140,551
2020-10-28T16:31:11,42.805,6.029,CST-1368DR,5849,8184,15075,0.141,551
2020-10-28T16:34:12,42.805,6.029,CST-1368DR,5848,8183,15076,0.141,551
2020-10-28T16:37:14,42.805,6.029,CST-1368DR,5848,8185,15078,0.140,551
2020-10-28T16:40:15,42.805,6.029,CST-1368DR,5848,8185,15079,0.140,551
2020-10-28T16:43:17,42.805,6.029,CST-1368DR,5848,8185,15078,0.140,551
2020-10-28T16:46:19,42.805,6.029,CST-1368DR,5848,8185,15078,0.140,551
2020-10-28T16:49:20,42.805,6.029,CST-1368DR,5848,8184,15078,0.140,551
2020-10-28T16:52:22,42.805,6.029,CST-1368DR,5848,8184,15078,0.140,551